SCP
0 0 0 0 0 0 0 0 0 0 0 0 0 0 0 0 0 0 0 0 0 0 0 0 0 0 0 0 0 0 0 0 0 0 0 0 0 0 0 0 0 0 0
0 0 0 0 0 0 0 0 0 0 0 0 0 0 0 0 0 0 0 0 0 0 0 0 0 0 0 0 0 0 0 0 0 0 0 0 0 0 0 0 0 0 0
0 0 0 0 0 0 0 0 0 0 0 0 0 0 0 0 0 0 0 0 0 0 0 0 0 0 0 0 0 0 0 0 0 0 0 0 0 0 0 0 0 0 0
0 0 0 0 0 0 0 0 0 0 0 0 0 0 0 0 0 0 0 0 0 0 0 0 0 0 0 0 0 0 0 0 0 0 0 0 0 0 0 0 0 0 0
0 0 0 0 0 0 0 0 0 0 0 0 0 0 0 0 0 0 0 0 0 0 0 0 0 0 0 0 0 0 0 0 0 0 0 0 0 0 0 0 0 0 0
0 0 0 -0 0 0 0 0 0 0 0 0 0 0 0 0 0 0 0 0 0 0 0 0 0 0 0 0 0 0 0 0 0 0 0 0 0 0 0 0 0 0 -0
0 -0 -0 -0 0 0 0 0 0 0 0 0 0 0 0 0 0 0 0 0 0 0 0 0 0 0 0 0 0 0 0 0 0 0 0 0 0 0 0 0 0 0 -0
0 0 -0 0 0 0 0 0 0 0 0 0 0 0 0 0 0 0 0 0 0 0 0 0 0 0 0 0 0 0 0 0 0 0 0 0 0 0 0 0 0 0 0
0 -0 0 0 0 0 0 0 0 0 0 0 0 0 0 0 0 0 0 0 0 0 0 0 0 0 0 0 0 0 0 0 0 0 0 0 0 0 0 0 0 0 0
-0 -0 -0 -0 0 0 0 0 0 0 0 0 0 0 0 0 0 0 0 0 0 0 0 0 0 0 0 0 0 0 0 0 0 0 0 0 0 0 0 0 0 0 0
-0 -0 -0 -0 0 0 0 0 0 0 0 0 0 0 0 0 0 0 0 0 0 0 0 0 0 0 0 0 0 0 0 0 0 0 0 0 0 0 0 0 0 0 0
-0 0 -0 0 0 0 0 0 0 0 0 0 0 0 0 0 0 0 0 0 0 0 0 0 0 0 0 0 0 0 0 0 0 0 0 0 0 0 0 0 0 0 0
-0 -0 -0 0 0 0 -0 0 0 0 0 0 0 0 0 0 0 0 0 0 0 0 0 0 0 0 0 0 0 0 0 0 0 0 0 0 0 0 0 0 0 0 0
0 0 0 0 0 -0 -0 0 0 0 0 0 0 0 0 0 0 0 0 0 0 0 0 0 0 0 0 0 0 0 0 0 0 0 0 0 0 0 0 0 0 0 0
0 0 0 0 0 0 0 0 -0 -0 0 0 0 0 0 0 0 0 0 0 0 0 0 0 0 0 0 0 0 0 0 0 0 0 0 0 0 0 0 0 0 0 0
0 0 0 0 0 0 0 -0 0 0 0 0 0 0 0 0 0 0 0 0 0 0 0 0 0 0 0 0 0 0 0 0 0 0 0 0 0 0 0 0 0 0 0
0 0 0 0 0 0 0 0 0 0 0 -0 0 0 0 0 0 0 0 0 0 0 0 0 0 0 0 0 0 0 0 0 0 0 0 0 0 0 0 0 0 0 0
0 0 0 0 0 0 0 0 0 0 0 0 0 0 0 0 0 0 0 0 0 0 0 0 0 0 0 0 0 0 0 0 0 0 0 0 0 0 0 0 0 0 0
0 0 0 0 0 0 0 0 0 0 0 0 0 0 0 0 0 0 0 0 0 0 0 0 0 0 0 0 0 0 0 0 0 0 0 0 0 0 0 0 0 0 0
-0 0 0 0 0 0 0 0 0 0 0 0 0 0 0 0 0 0 0 0 0 0 0 0 0 0 0 0 0 0 0 0 0 0 0 0 0 0 0 0 0 0 0
-0 -0 -0 -0 -0 -0 -0 0 0 0 0 0 0 0 0 0 0 0 0 0 0 0 0 0 0 0 0 0 0 0 0 0 0 0 0 0 0 0 0 0 0 0 0
-0 -0 -0 -0 -0 -0 -0 -0 0 0 0 0 0 0 0 0 0 0 0 0 0 0 0 0 0 0 0 0 0 0 0 0 0 0 0 0 0 0 0 0 0 0 0
-0 -0 -0 -0 -0 -0 -0 -0 -0 -0 0 0 0 0 0 0 0 0 0 0 0 0 0 0 0 0 0 0 0 0 0 0 0 0 0 0 0 0 0 0 0 0 0
-0 -0 -0 -0 -0 -0 -0 -0 -0 0 0 0 0 0 0 0 0 0 0 0 0 0 0 0 0 0 0 0 0 0 0 0 0 0 0 0 0 0 0 0 0 0 0
-0 -0 -0 -0 -0 -0 -0 -0 0 0 0 0 0 0 0 0 0 0 0 0 0 0 0 0 0 0 0 0 0 0 0 0 0 0 0 0 0 0 0 0 0 0 0
-0 -0 -0 -0 -0 -0 -0 -0 -0 -0 0 0 0 0 0 0 0 0 0 0 0 0 0 0 0 0 0 0 0 0 0 0 0 0 0 0 0 0 0 0 0 0 0
Wind_Speed_500mb
120 110 100 89 90 83 82 81 86 89 95 98 96 94 94 89 88 86 83 80 75 71 68 64 61 57 51 46 43 40 38 37 36 34 30 27 16 13 18 11 14 9 12
99 92 86 76 81 84 89 86 89 95 98 100 94 98 95 93 88 88 86 85 81 77 74 71 67 62 56 52 48 43 39 37 33 29 30 10 19 16 22 27 22 5 19
98 96 91 82 71 73 73 72 79 88 95 98 98 99 96 93 94 94 92 91 86 81 77 73 69 64 60 57 52 47 42 36 31 27 19 10 7 11 28 9 27 15 25
83 79 78 76 73 67 64 68 73 81 88 98 101 101 101 98 98 96 90 92 89 84 80 76 72 69 66 64 57 51 45 39 33 29 26 25 27 12 14 17 23 33 36
74 72 73 75 55 53 58 55 68 78 84 96 101 101 101 99 92 90 94 93 89 86 83 80 76 73 70 64 60 55 48 40 34 31 30 29 29 31 27 35 29 46 38
60 65 71 73 62 49 59 60 63 69 76 86 96 100 102 99 92 94 93 92 91 90 89 85 82 77 73 69 64 57 51 44 39 37 35 33 31 30 30 37 52 55 50
59 76 83 79 61 50 56 61 64 70 74 80 90 98 101 96 93 93 92 89 90 94 93 90 87 82 78 73 69 63 56 49 43 41 41 40 38 35 34 36 40 48 60
58 77 50 45 62 54 56 61 60 64 69 76 86 89 95 97 98 94 92 90 85 85 89 88 83 82 79 77 73 68 62 56 51 47 45 45 42 40 38 37 38 38 38
54 68 73 53 43 41 50 55 52 57 60 71 79 85 91 100 103 99 96 90 86 84 85 83 81 82 80 80 77 73 69 63 56 52 51 48 44 41 41 39 39 38 26
76 84 71 46 38 27 24 35 45 55 56 64 75 87 95 98 99 101 98 94 90 88 86 84 81 83 82 83 82 77 72 68 63 59 55 50 46 44 43 41 40 40 43
81 68 59 33 23 20 24 25 35 45 52 60 80 92 98 100 98 103 101 97 94 91 89 88 86 84 85 87 87 82 77 74 70 64 57 52 49 47 46 44 44 42 46
70 66 67 59 35 41 54 52 53 64 71 75 84 93 93 98 102 104 105 104 103 99 91 90 89 87 88 90 91 87 84 81 76 67 60 55 52 49 48 46 45 46 46
66 59 57 64 70 64 63 56 66 64 72 87 84 89 93 95 100 106 112 114 111 108 101 97 94 93 93 95 94 89 87 83 76 68 62 57 54 51 49 47 44 44 48
43 43 40 39 44 46 45 51 55 57 68 73 80 93 95 91 97 102 110 114 109 111 110 106 101 99 97 95 93 93 90 84 78 72 64 59 56 51 49 48 43 44 48
62 64 72 71 66 62 64 62 61 62 60 67 77 98 96 94 96 99 103 106 105 109 108 105 103 100 99 98 98 96 92 87 81 73 66 61 55 50 50 48 45 41 47
63 65 76 78 81 83 82 79 73 69 62 67 71 70 79 91 89 90 96 99 102 106 104 105 104 106 108 103 97 95 93 88 82 75 67 61 56 53 53 49 42 45 50
70 73 80 81 83 84 78 78 75 73 68 63 68 69 74 81 89 87 91 95 100 101 101 100 103 108 108 102 99 96 94 89 82 76 67 63 58 54 49 44 39 43 43
62 66 74 77 82 80 86 85 76 74 72 66 60 61 65 69 79 86 87 87 90 97 96 97 101 105 107 101 97 98 93 90 83 74 68 63 55 52 47 44 42 43 43
58 67 75 77 77 80 82 89 94 84 75 71 63 60 58 59 67 78 77 80 82 90 93 94 100 106 105 100 99 99 94 93 86 78 72 64 56 52 43 44 44 42 40
66 72 74 82 78 84 87 87 88 92 76 68 63 62 59 55 58 64 67 70 73 83 85 91 97 99 97 93 94 100 93 90 86 75 67 61 57 46 43 42 41 38 39
69 71 76 83 83 79 81 89 91 90 83 68 64 63 60 58 52 52 54 59 66 72 79 84 90 91 91 86 91 97 97 91 84 75 70 62 49 43 42 39 36 37 37
72 70 76 85 87 88 84 86 89 90 92 74 66 55 57 57 53 51 49 51 57 65 73 78 81 84 85 82 89 82 92 83 80 74 66 54 47 44 40 35 31 31 35
86 86 80 88 102 98 89 90 94 96 97 90 76 64 57 54 57 56 58 48 56 64 72 80 84 85 80 78 80 72 70 74 71 66 58 48 49 48 40 33 29 30 32
88 91 95 104 112 103 102 99 99 89 83 78 81 68 60 62 62 67 67 61 59 69 75 84 86 85 83 84 92 87 69 57 63 62 54 52 48 42 35 31 27 28 31
94 92 103 110 116 106 110 103 99 95 92 88 86 75 61 65 69 70 74 81 74 75 80 82 83 89 91 95 100 101 91 81 66 64 58 53 51 42 37 31 27 29 32
95 96 106 115 122 117 116 106 95 88 88 90 90 75 74 68 73 74 77 81 84 80 80 77 80 81 81 83 94 98 94 86 84 75 62 60 50 43 35 29 28 29 27
Wind_Direction_500mb
284 283 275 270 266 262 255 252 251 244 238 235 232 230 231 231 231 230 231 231 231 231 231 233 235 238 241 245 250 257 267 276 284 293 300 308 297 282 219 205 321 284 305
282 284 283 275 265 262 258 260 251 245 240 236 235 233 232 231 234 232 230 230 230 231 232 233 235 236 238 243 247 253 262 271 281 291 304 284 296 250 222 276 287 273 334
275 284 284 283 276 266 260 258 254 246 240 236 230 231 231 233 232 231 229 229 230 231 233 234 235 236 238 241 245 250 257 266 276 283 283 288 227 250 283 247 279 265 311
281 282 284 281 279 276 271 261 251 245 238 234 231 230 233 232 236 236 234 231 230 231 233 234 236 237 239 240 242 245 251 259 268 275 273 270 273 288 280 262 253 289 308
285 288 291 295 288 274 262 254 249 248 238 233 230 229 230 234 239 238 235 234 232 232 234 235 236 237 239 240 241 244 249 255 260 263 266 268 274 280 279 291 281 299 307
289 292 291 294 297 273 258 248 241 239 238 234 231 231 232 232 232 235 236 235 232 233 234 234 235 237 238 240 242 244 246 251 257 264 266 266 266 270 274 285 299 308 314
321 314 303 302 299 264 249 243 241 238 232 230 229 231 234 236 236 235 235 234 232 233 234 234 234 235 237 238 239 241 244 248 254 260 265 269 270 272 274 280 291 304 312
353 346 324 308 296 269 253 241 241 242 239 233 230 231 236 239 240 238 238 238 236 239 240 237 237 239 239 238 238 239 240 241 246 254 260 262 266 273 278 281 286 294 297
350 351 346 323 293 269 253 253 254 252 249 243 237 235 234 236 239 241 240 239 240 240 241 239 240 240 239 239 237 237 239 240 242 247 253 260 264 268 273 277 282 286 288
323 331 337 331 310 286 279 273 267 266 265 258 248 243 242 241 243 244 242 242 242 241 241 239 237 237 238 238 236 236 236 237 240 244 248 253 259 265 268 272 278 285 289
326 326 322 312 314 304 283 272 272 266 263 278 263 252 249 247 245 244 244 243 243 242 241 240 237 235 235 237 235 235 235 237 239 242 245 249 253 258 264 268 274 281 288
303 304 307 294 286 296 298 296 293 283 272 271 263 259 254 250 248 247 246 243 243 243 241 240 237 235 236 237 236 234 233 235 237 239 244 249 252 256 261 266 272 280 289
299 306 296 298 301 300 298 289 301 295 286 276 272 264 257 254 251 248 248 245 244 244 241 239 236 235 235 234 233 234 235 235 237 239 242 247 252 258 263 266 270 281 289
11 8 349 331 327 334 329 316 309 306 300 287 278 273 263 262 259 252 252 249 248 246 242 240 238 236 234 233 231 232 232 233 234 237 240 243 247 252 258 264 273 282 290
5 359 351 346 346 340 338 333 329 327 311 296 288 277 269 263 260 256 254 253 251 249 245 240 237 236 234 231 229 230 231 232 233 234 236 239 244 251 257 263 271 281 287
352 347 344 340 345 347 344 340 336 332 320 303 290 287 278 270 264 259 256 255 252 248 244 239 236 235 232 230 229 231 230 230 231 232 234 238 243 248 255 261 273 287 293
342 340 338 336 335 336 340 336 333 333 333 327 307 288 281 274 269 265 258 254 252 248 243 238 235 233 232 230 228 228 228 228 229 230 232 234 238 244 252 262 274 280 286
335 331 327 326 324 323 326 326 328 330 334 334 329 310 291 283 276 268 260 254 251 247 245 241 235 232 231 228 227 228 227 227 225 227 231 233 237 244 248 259 268 274 279
320 323 329 326 323 325 326 320 318 322 327 330 330 329 319 298 282 270 262 255 249 246 242 239 234 230 227 224 225 227 225 224 224 224 227 230 233 240 251 259 267 275 286
324 325 323 317 321 324 322 320 319 315 317 321 326 326 325 311 293 278 267 257 251 247 243 236 232 230 228 223 226 227 225 222 221 220 223 227 233 235 246 254 264 276 287
325 324 323 319 321 320 319 316 314 313 312 309 306 316 323 315 297 285 270 260 248 243 239 235 231 229 227 222 226 228 230 224 221 219 220 225 228 234 242 251 262 276 283
321 322 319 321 320 318 317 314 309 310 307 304 301 298 296 304 301 286 276 256 248 242 237 233 229 226 223 218 222 221 233 227 223 220 219 220 225 235 237 243 256 267 279
322 323 318 313 315 316 314 307 305 305 303 301 297 295 293 284 281 277 274 259 250 243 238 233 227 223 223 217 214 207 219 224 221 219 221 217 223 228 232 238 245 261 273
315 317 314 312 311 310 307 305 305 304 300 294 296 294 290 282 274 267 264 260 249 239 236 235 232 225 225 213 210 204 200 215 215 213 219 221 228 222 223 230 242 260 273
308 308 309 308 305 305 304 303 301 299 297 294 282 285 284 283 275 267 263 260 254 247 243 240 236 231 227 218 212 213 204 204 212 222 218 219 217 214 220 228 243 258 270
303 302 304 306 305 303 301 300 299 298 297 292 286 281 278 277 277 269 263 260 255 251 248 248 249 246 241 227 214 211 212 209 215 214 211 215 213 216 220 230 247 259 270
Wind_Speed_850mb
120 110 100 89 90 83 82 81 86 89 95 98 96 94 94 89 88 86 83 80 75 71 68 64 61 57 51 46 43 40 38 37 36 34 30 27 16 13 18 11 14 9 12
99 92 86 76 81 84 89 86 89 95 98 100 94 98 95 93 88 88 86 85 81 77 74 71 67 62 56 52 48 43 39 37 33 29 30 10 19 16 22 27 22 5 19
98 96 91 82 71 73 73 72 79 88 95 98 98 99 96 93 94 94 92 91 86 81 77 73 69 64 60 57 52 47 42 36 31 27 19 10 7 11 28 9 27 15 25
83 79 78 76 73 67 64 68 73 81 88 98 101 101 101 98 98 96 90 92 89 84 80 76 72 69 66 64 57 51 45 39 33 29 26 25 27 12 14 17 23 33 36
74 72 73 75 55 53 58 55 68 78 84 96 101 101 101 99 92 90 94 93 89 86 83 80 76 73 70 64 60 55 48 40 34 31 30 29 29 31 27 35 29 46 38
60 65 71 73 62 49 59 60 63 69 76 86 96 100 102 99 92 94 93 92 91 90 89 85 82 77 73 69 64 57 51 44 39 37 35 33 31 30 30 37 52 55 50
59 76 83 79 61 50 56 61 64 70 74 80 90 98 101 96 93 93 92 89 90 94 93 90 87 82 78 73 69 63 56 49 43 41 41 40 38 35 34 36 40 48 60
58 77 50 45 62 54 56 61 60 64 69 76 86 89 95 97 98 94 92 90 85 85 89 88 83 82 79 77 73 68 62 56 51 47 45 45 42 40 38 37 38 38 38
54 68 73 53 43 41 50 55 52 57 60 71 79 85 91 100 103 99 96 90 86 84 85 83 81 82 80 80 77 73 69 63 56 52 51 48 44 41 41 39 39 38 26
76 84 71 46 38 27 24 35 45 55 56 64 75 87 95 98 99 101 98 94 90 88 86 84 81 83 82 83 82 77 72 68 63 59 55 50 46 44 43 41 40 40 43
81 68 59 33 23 20 24 25 35 45 52 60 80 92 98 100 98 103 101 97 94 91 89 88 86 84 85 87 87 82 77 74 70 64 57 52 49 47 46 44 44 42 46
70 66 67 59 35 41 54 52 53 64 71 75 84 93 93 98 102 104 105 104 103 99 91 90 89 87 88 90 91 87 84 81 76 67 60 55 52 49 48 46 45 46 46
66 59 57 64 70 64 63 56 66 64 72 87 84 89 93 95 100 106 112 114 111 108 101 97 94 93 93 95 94 89 87 83 76 68 62 57 54 51 49 47 44 44 48
43 43 40 39 44 46 45 51 55 57 68 73 80 93 95 91 97 102 110 114 109 111 110 106 101 99 97 95 93 93 90 84 78 72 64 59 56 51 49 48 43 44 48
62 64 72 71 66 62 64 62 61 62 60 67 77 98 96 94 96 99 103 106 105 109 108 105 103 100 99 98 98 96 92 87 81 73 66 61 55 50 50 48 45 41 47
63 65 76 78 81 83 82 79 73 69 62 67 71 70 79 91 89 90 96 99 102 106 104 105 104 106 108 103 97 95 93 88 82 75 67 61 56 53 53 49 42 45 50
70 73 80 81 83 84 78 78 75 73 68 63 68 69 74 81 89 87 91 95 100 101 101 100 103 108 108 102 99 96 94 89 82 76 67 63 58 54 49 44 39 43 43
62 66 74 77 82 80 86 85 76 74 72 66 60 61 65 69 79 86 87 87 90 97 96 97 101 105 107 101 97 98 93 90 83 74 68 63 55 52 47 44 42 43 43
58 67 75 77 77 80 82 89 94 84 75 71 63 60 58 59 67 78 77 80 82 90 93 94 100 106 105 100 99 99 94 93 86 78 72 64 56 52 43 44 44 42 40
66 72 74 82 78 84 87 87 88 92 76 68 63 62 59 55 58 64 67 70 73 83 85 91 97 99 97 93 94 100 93 90 86 75 67 61 57 46 43 42 41 38 39
69 71 76 83 83 79 81 89 91 90 83 68 64 63 60 58 52 52 54 59 66 72 79 84 90 91 91 86 91 97 97 91 84 75 70 62 49 43 42 39 36 37 37
72 70 76 85 87 88 84 86 89 90 92 74 66 55 57 57 53 51 49 51 57 65 73 78 81 84 85 82 89 82 92 83 80 74 66 54 47 44 40 35 31 31 35
86 86 80 88 102 98 89 90 94 96 97 90 76 64 57 54 57 56 58 48 56 64 72 80 84 85 80 78 80 72 70 74 71 66 58 48 49 48 40 33 29 30 32
88 91 95 104 112 103 102 99 99 89 83 78 81 68 60 62 62 67 67 61 59 69 75 84 86 85 83 84 92 87 69 57 63 62 54 52 48 42 35 31 27 28 31
94 92 103 110 116 106 110 103 99 95 92 88 86 75 61 65 69 70 74 81 74 75 80 82 83 89 91 95 100 101 91 81 66 64 58 53 51 42 37 31 27 29 32
95 96 106 115 122 117 116 106 95 88 88 90 90 75 74 68 73 74 77 81 84 80 80 77 80 81 81 83 94 98 94 86 84 75 62 60 50 43 35 29 28 29 27
Wind_Direction_850mb
284 283 275 270 266 262 255 252 251 244 238 235 232 230 231 231 231 230 231 231 231 231 231 233 235 238 241 245 250 257 267 276 284 293 300 308 297 282 219 205 321 284 305
282 284 283 275 265 262 258 260 251 245 240 236 235 233 232 231 234 232 230 230 230 231 232 233 235 236 238 243 247 253 262 271 281 291 304 284 296 250 222 276 287 273 334
275 284 284 283 276 266 260 258 254 246 240 236 230 231 231 233 232 231 229 229 230 231 233 234 235 236 238 241 245 250 257 266 276 283 283 288 227 250 283 247 279 265 311
281 282 284 281 279 276 271 261 251 245 238 234 231 230 233 232 236 236 234 231 230 231 233 234 236 237 239 240 242 245 251 259 268 275 273 270 273 288 280 262 253 289 308
285 288 291 295 288 274 262 254 249 248 238 233 230 229 230 234 239 238 235 234 232 232 234 235 236 237 239 240 241 244 249 255 260 263 266 268 274 280 279 291 281 299 307
289 292 291 294 297 273 258 248 241 239 238 234 231 231 232 232 232 235 236 235 232 233 234 234 235 237 238 240 242 244 246 251 257 264 266 266 266 270 274 285 299 308 314
321 314 303 302 299 264 249 243 241 238 232 230 229 231 234 236 236 235 235 234 232 233 234 234 234 235 237 238 239 241 244 248 254 260 265 269 270 272 274 280 291 304 312
353 346 324 308 296 269 253 241 241 242 239 233 230 231 236 239 240 238 238 238 236 239 240 237 237 239 239 238 238 239 240 241 246 254 260 262 266 273 278 281 286 294 297
350 351 346 323 293 269 253 253 254 252 249 243 237 235 234 236 239 241 240 239 240 240 241 239 240 240 239 239 237 237 239 240 242 247 253 260 264 268 273 277 282 286 288
323 331 337 331 310 286 279 273 267 266 265 258 248 243 242 241 243 244 242 242 242 241 241 239 237 237 238 238 236 236 236 237 240 244 248 253 259 265 268 272 278 285 289
326 326 322 312 314 304 283 272 272 266 263 278 263 252 249 247 245 244 244 243 243 242 241 240 237 235 235 237 235 235 235 237 239 242 245 249 253 258 264 268 274 281 288
303 304 307 294 286 296 298 296 293 283 272 271 263 259 254 250 248 247 246 243 243 243 241 240 237 235 236 237 236 234 233 235 237 239 244 249 252 256 261 266 272 280 289
299 306 296 298 301 300 298 289 301 295 286 276 272 264 257 254 251 248 248 245 244 244 241 239 236 235 235 234 233 234 235 235 237 239 242 247 252 258 263 266 270 281 289
11 8 349 331 327 334 329 316 309 306 300 287 278 273 263 262 259 252 252 249 248 246 242 240 238 236 234 233 231 232 232 233 234 237 240 243 247 252 258 264 273 282 290
5 359 351 346 346 340 338 333 329 327 311 296 288 277 269 263 260 256 254 253 251 249 245 240 237 236 234 231 229 230 231 232 233 234 236 239 244 251 257 263 271 281 287
352 347 344 340 345 347 344 340 336 332 320 303 290 287 278 270 264 259 256 255 252 248 244 239 236 235 232 230 229 231 230 230 231 232 234 238 243 248 255 261 273 287 293
342 340 338 336 335 336 340 336 333 333 333 327 307 288 281 274 269 265 258 254 252 248 243 238 235 233 232 230 228 228 228 228 229 230 232 234 238 244 252 262 274 280 286
335 331 327 326 324 323 326 326 328 330 334 334 329 310 291 283 276 268 260 254 251 247 245 241 235 232 231 228 227 228 227 227 225 227 231 233 237 244 248 259 268 274 279
320 323 329 326 323 325 326 320 318 322 327 330 330 329 319 298 282 270 262 255 249 246 242 239 234 230 227 224 225 227 225 224 224 224 227 230 233 240 251 259 267 275 286
324 325 323 317 321 324 322 320 319 315 317 321 326 326 325 311 293 278 267 257 251 247 243 236 232 230 228 223 226 227 225 222 221 220 223 227 233 235 246 254 264 276 287
325 324 323 319 321 320 319 316 314 313 312 309 306 316 323 315 297 285 270 260 248 243 239 235 231 229 227 222 226 228 230 224 221 219 220 225 228 234 242 251 262 276 283
321 322 319 321 320 318 317 314 309 310 307 304 301 298 296 304 301 286 276 256 248 242 237 233 229 226 223 218 222 221 233 227 223 220 219 220 225 235 237 243 256 267 279
322 323 318 313 315 316 314 307 305 305 303 301 297 295 293 284 281 277 274 259 250 243 238 233 227 223 223 217 214 207 219 224 221 219 221 217 223 228 232 238 245 261 273
315 317 314 312 311 310 307 305 305 304 300 294 296 294 290 282 274 267 264 260 249 239 236 235 232 225 225 213 210 204 200 215 215 213 219 221 228 222 223 230 242 260 273
308 308 309 308 305 305 304 303 301 299 297 294 282 285 284 283 275 267 263 260 254 247 243 240 236 231 227 218 212 213 204 204 212 222 218 219 217 214 220 228 243 258 270
303 302 304 306 305 303 301 300 299 298 297 292 286 281 278 277 277 269 263 260 255 251 248 248 249 246 241 227 214 211 212 209 215 214 211 215 213 216 220 230 247 259 270